Time,TemperatureF,DewpointF,PressureIn,WindDirection,WindDirectionDegrees,WindSpeedMPH,WindSpeedGustMPH,Humidity,HourlyPrecipIn,Conditions,Clouds,dailyrainin,SoftwareType,DateUTC
2013-09-15 00:02:00,-999.0,-99.9,-100.00,West,270,7.0,13.0,-999,-99.99,,,-99.99,,2013-09-15 04:02:00,
2013-09-15 00:24:00,56.0,54.0,-100.00,NW,310,2.0,7.0,96,-99.99,,,-99.99,,2013-09-15 04:24:00,
2013-09-15 00:34:00,56.0,54.0,-100.00,NW,310,2.0,7.0,96,-99.99,,,-99.99,,2013-09-15 04:34:00,
2013-09-15 00:43:00,56.0,54.0,-100.00,NW,310,2.0,7.0,96,-99.99,,,-99.99,,2013-09-15 04:43:00,
2013-09-15 00:54:00,56.0,54.0,-100.00,NW,310,2.0,7.0,96,-99.99,,,-99.99,,2013-09-15 04:54:00,
2013-09-15 01:23:00,55.0,54.0,-100.00,NNW,345,1.0,3.0,97,-99.99,,,-99.99,,2013-09-15 05:23:00,
2013-09-15 01:34:00,55.0,54.0,-100.00,NNW,345,1.0,3.0,97,-99.99,,,-99.99,,2013-09-15 05:34:00,
2013-09-15 01:42:00,55.0,54.0,-100.00,NNW,345,1.0,3.0,97,-99.99,,,-99.99,,2013-09-15 05:42:00,
2013-09-15 01:52:00,55.0,54.0,-100.00,NNW,345,1.0,3.0,97,-99.99,,,-99.99,,2013-09-15 05:52:00,
2013-09-15 02:02:00,55.0,54.0,-100.00,NNW,345,1.0,3.0,97,-99.99,,,-99.99,,2013-09-15 06:02:00,
2013-09-15 02:22:00,55.0,54.0,-100.00,WSW,245,1.0,3.0,98,-99.99,,,-99.99,,2013-09-15 06:22:00,
2013-09-15 02:33:00,55.0,54.0,-100.00,WSW,245,1.0,3.0,98,-99.99,,,-99.99,,2013-09-15 06:33:00,
2013-09-15 02:42:00,55.0,54.0,-100.00,WSW,245,1.0,3.0,98,-99.99,,,-99.99,,2013-09-15 06:42:00,
2013-09-15 02:52:00,55.0,54.0,-100.00,WSW,245,1.0,3.0,98,-99.99,,,-99.99,,2013-09-15 06:52:00,
2013-09-15 03:02:00,55.0,54.0,-100.00,WSW,245,1.0,3.0,98,-99.99,,,-99.99,,2013-09-15 07:02:00,
2013-09-15 03:22:00,55.0,54.0,-100.00,SSE,155,1.0,4.0,98,-99.99,,,-99.99,,2013-09-15 07:22:00,
2013-09-15 03:33:00,55.0,54.0,-100.00,SSE,155,1.0,4.0,98,-99.99,,,-99.99,,2013-09-15 07:33:00,
2013-09-15 03:42:00,55.0,54.0,-100.00,SSE,155,1.0,4.0,98,-99.99,,,-99.99,,2013-09-15 07:42:00,
2013-09-15 03:52:00,55.0,54.0,-100.00,SSE,155,1.0,4.0,98,-99.99,,,-99.99,,2013-09-15 07:52:00,
2013-09-15 04:02:00,55.0,54.0,-100.00,SSE,155,1.0,4.0,98,-99.99,,,-99.99,,2013-09-15 08:02:00,
2013-09-15 04:22:00,55.0,54.0,-100.00,SW,220,2.0,4.0,98,-99.99,,,-99.99,,2013-09-15 08:22:00,
2013-09-15 04:32:00,55.0,54.0,-100.00,SW,220,2.0,4.0,98,-99.99,,,-99.99,,2013-09-15 08:32:00,
2013-09-15 04:43:00,55.0,54.0,-100.00,SW,220,2.0,4.0,98,-99.99,,,-99.99,,2013-09-15 08:43:00,
2013-09-15 04:52:00,55.0,54.0,-100.00,SW,220,2.0,4.0,98,-99.99,,,-99.99,,2013-09-15 08:52:00,
2013-09-15 05:03:00,54.0,54.0,-100.00,SW,230,1.0,4.0,98,-99.99,,,-99.99,,2013-09-15 09:03:00,
2013-09-15 05:22:00,54.0,54.0,-100.00,SW,230,1.0,4.0,98,-99.99,,,-99.99,,2013-09-15 09:22:00,
2013-09-15 05:33:00,54.0,54.0,-100.00,SW,230,1.0,4.0,98,-99.99,,,-99.99,,2013-09-15 09:33:00,
2013-09-15 05:44:00,54.0,54.0,-100.00,SW,230,1.0,4.0,98,-99.99,,,-99.99,,2013-09-15 09:44:00,
2013-09-15 05:53:00,54.0,54.0,-100.00,SW,230,1.0,4.0,98,-99.99,,,-99.99,,2013-09-15 09:53:00,
2013-09-15 06:23:00,54.0,54.0,-100.00,SSW,200,0.0,2.0,99,-99.99,,,-99.99,,2013-09-15 10:23:00,
2013-09-15 06:32:00,54.0,54.0,-100.00,SSW,200,0.0,2.0,99,-99.99,,,-99.99,,2013-09-15 10:32:00,
2013-09-15 06:43:00,54.0,54.0,-100.00,SSW,200,0.0,2.0,99,-99.99,,,-99.99,,2013-09-15 10:43:00,
2013-09-15 06:53:00,54.0,54.0,-100.00,SSW,200,0.0,2.0,99,-99.99,,,-99.99,,2013-09-15 10:53:00,
2013-09-15 07:02:00,54.0,54.0,-100.00,SSW,200,0.0,2.0,99,-99.99,,,-99.99,,2013-09-15 11:02:00,
2013-09-15 07:22:00,53.0,53.0,-100.00,SSW,210,2.0,2.0,99,-99.99,,,-99.99,,2013-09-15 11:22:00,
2013-09-15 07:33:00,53.0,53.0,-100.00,SSW,210,2.0,2.0,99,-99.99,,,-99.99,,2013-09-15 11:33:00,
2013-09-15 07:42:00,53.0,53.0,-100.00,SSW,210,2.0,2.0,99,-99.99,,,-99.99,,2013-09-15 11:42:00,
2013-09-15 07:52:00,53.0,53.0,-100.00,SSW,210,2.0,2.0,99,-99.99,,,-99.99,,2013-09-15 11:52:00,
2013-09-15 08:02:00,53.0,53.0,-100.00,SSW,210,2.0,2.0,99,-99.99,,,-99.99,,2013-09-15 12:02:00,
2013-09-15 08:22:00,54.0,53.0,-100.00,SW,215,0.0,1.0,99,-99.99,,,-99.99,,2013-09-15 12:22:00,
2013-09-15 08:32:00,54.0,53.0,-100.00,SW,215,0.0,1.0,99,-99.99,,,-99.99,,2013-09-15 12:32:00,
2013-09-15 08:42:00,54.0,53.0,-100.00,SW,215,0.0,1.0,99,-99.99,,,-99.99,,2013-09-15 12:42:00,
2013-09-15 08:52:00,54.0,53.0,-100.00,SW,215,0.0,1.0,99,-99.99,,,-99.99,,2013-09-15 12:52:00,
2013-09-15 09:22:00,53.0,53.0,-100.00,NNW,335,2.0,3.0,99,-99.99,,,-99.99,,2013-09-15 13:22:00,
2013-09-15 09:32:00,53.0,53.0,-100.00,NNW,335,2.0,3.0,99,-99.99,,,-99.99,,2013-09-15 13:32:00,
2013-09-15 09:42:00,53.0,53.0,-100.00,NNW,335,2.0,3.0,99,-99.99,,,-99.99,,2013-09-15 13:42:00,
2013-09-15 09:53:00,53.0,53.0,-100.00,NNW,335,2.0,3.0,99,-99.99,,,-99.99,,2013-09-15 13:53:00,
2013-09-15 10:02:00,53.0,53.0,-100.00,NNW,335,2.0,3.0,99,-99.99,,,-99.99,,2013-09-15 14:02:00,
2013-09-15 10:22:00,55.0,54.0,-100.00,West,280,1.0,3.0,99,-99.99,,,-99.99,,2013-09-15 14:22:00,
2013-09-15 15:22:00,56.0,49.0,-100.00,NE,35,8.0,15.0,79,-99.99,,,-99.99,,2013-09-15 19:22:00,
2013-09-15 15:32:00,56.0,49.0,-100.00,NE,35,8.0,15.0,79,-99.99,,,-99.99,,2013-09-15 19:32:00,
2013-09-15 15:42:00,56.0,49.0,-100.00,NE,35,8.0,15.0,79,-99.99,,,-99.99,,2013-09-15 19:42:00,
2013-09-15 15:52:00,56.0,49.0,-100.00,NE,35,8.0,15.0,79,-99.99,,,-99.99,,2013-09-15 19:52:00,
2013-09-15 16:02:00,56.0,49.0,-100.00,NE,35,8.0,15.0,79,-99.99,,,-99.99,,2013-09-15 20:02:00,
2013-09-15 16:22:00,53.0,48.0,-100.00,NNE,20,7.0,20.0,83,-99.99,,,-99.99,,2013-09-15 20:22:00,
2013-09-15 16:32:00,53.0,48.0,-100.00,NNE,20,7.0,20.0,83,-99.99,,,-99.99,,2013-09-15 20:32:00,
2013-09-15 16:42:00,53.0,48.0,-100.00,NNE,20,7.0,20.0,83,-99.99,,,-99.99,,2013-09-15 20:42:00,
2013-09-15 16:53:00,53.0,48.0,-100.00,NNE,20,7.0,20.0,83,-99.99,,,-99.99,,2013-09-15 20:53:00,
2013-09-15 17:44:00,53.0,47.0,-100.00,North,0,9.0,17.0,81,-99.99,,,-99.99,,2013-09-15 21:44:00,
2013-09-15 17:54:00,53.0,47.0,-100.00,North,0,9.0,17.0,81,-99.99,,,-99.99,,2013-09-15 21:54:00,
2013-09-15 18:04:00,53.0,47.0,-100.00,North,0,9.0,17.0,81,-99.99,,,-99.99,,2013-09-15 22:04:00,
2013-09-15 18:23:00,51.0,45.0,-100.00,NNE,15,5.0,14.0,80,-99.99,,,-99.99,,2013-09-15 22:23:00,
2013-09-15 18:33:00,51.0,45.0,-100.00,NNE,15,5.0,14.0,80,-99.99,,,-99.99,,2013-09-15 22:33:00,
2013-09-15 18:44:00,51.0,45.0,-100.00,NNE,15,5.0,14.0,80,-99.99,,,-99.99,,2013-09-15 22:44:00,
2013-09-15 18:53:00,51.0,45.0,-100.00,NNE,15,5.0,14.0,80,-99.99,,,-99.99,,2013-09-15 22:53:00,
2013-09-15 19:02:00,51.0,45.0,-100.00,NNE,15,5.0,14.0,80,-99.99,,,-99.99,,2013-09-15 23:02:00,
2013-09-15 19:22:00,48.0,42.0,-100.00,NE,35,5.0,13.0,78,-99.99,,,-99.99,,2013-09-15 23:22:00,
2013-09-15 19:33:00,48.0,42.0,-100.00,NE,35,5.0,13.0,78,-99.99,,,-99.99,,2013-09-15 23:33:00,
2013-09-15 19:42:00,48.0,42.0,-100.00,NE,35,5.0,13.0,78,-99.99,,,-99.99,,2013-09-15 23:42:00,
2013-09-15 19:53:00,48.0,42.0,-100.00,NE,35,5.0,13.0,78,-99.99,,,-99.99,,2013-09-15 23:53:00,
2013-09-15 20:01:00,48.0,42.0,-100.00,NE,35,5.0,13.0,78,-99.99,,,-99.99,,2013-09-16 00:01:00,
2013-09-15 20:02:00,47.0,40.0,-100.00,NE,35,6.0,11.0,77,-99.99,,,-99.99,,2013-09-16 00:02:00,
2013-09-15 20:22:00,47.0,40.0,-100.00,NE,35,6.0,11.0,77,-99.99,,,-99.99,,2013-09-16 00:22:00,
2013-09-15 20:32:00,47.0,40.0,-100.00,NE,35,6.0,11.0,77,-99.99,,,-99.99,,2013-09-16 00:32:00,
2013-09-15 20:42:00,47.0,40.0,-100.00,NE,35,6.0,11.0,77,-99.99,,,-99.99,,2013-09-16 00:42:00,
2013-09-15 20:52:00,47.0,40.0,-100.00,NE,35,6.0,11.0,77,-99.99,,,-99.99,,2013-09-16 00:52:00,
2013-09-15 21:02:00,44.0,38.0,-100.00,NE,40,5.0,9.0,79,-99.99,,,-99.99,,2013-09-16 01:02:00,
2013-09-15 21:22:00,44.0,38.0,-100.00,NE,40,5.0,9.0,79,-99.99,,,-99.99,,2013-09-16 01:22:00,
2013-09-15 21:32:00,44.0,38.0,-100.00,NE,40,5.0,9.0,79,-99.99,,,-99.99,,2013-09-16 01:32:00,
2013-09-15 21:42:00,44.0,38.0,-100.00,NE,40,5.0,9.0,79,-99.99,,,-99.99,,2013-09-16 01:42:00,
2013-09-15 21:52:00,44.0,38.0,-100.00,NE,40,5.0,9.0,79,-99.99,,,-99.99,,2013-09-16 01:52:00,
2013-09-15 22:22:00,41.0,37.0,-100.00,NNE,20,1.0,1.0,88,-99.99,,,-99.99,,2013-09-16 02:22:00,
2013-09-15 22:32:00,41.0,37.0,-100.00,NNE,20,1.0,1.0,88,-99.99,,,-99.99,,2013-09-16 02:32:00,
2013-09-15 22:42:00,41.0,37.0,-100.00,NNE,20,1.0,1.0,88,-99.99,,,-99.99,,2013-09-16 02:42:00,
2013-09-15 22:52:00,41.0,37.0,-100.00,NNE,20,1.0,1.0,88,-99.99,,,-99.99,,2013-09-16 02:52:00,
2013-09-15 23:02:00,41.0,37.0,-100.00,NNE,20,1.0,1.0,88,-99.99,,,-99.99,,2013-09-16 03:02:00,
2013-09-15 23:23:00,38.0,37.0,-100.00,North,10,0.0,0.0,94,-99.99,,,-99.99,,2013-09-16 03:23:00,
2013-09-15 23:34:00,38.0,37.0,-100.00,North,10,0.0,0.0,94,-99.99,,,-99.99,,2013-09-16 03:34:00,
2013-09-15 23:45:00,38.0,37.0,-100.00,North,10,0.0,0.0,94,-99.99,,,-99.99,,2013-09-16 03:45:00,
2013-09-15 23:55:00,38.0,37.0,-100.00,North,10,0.0,0.0,94,-99.99,,,-99.99,,2013-09-16 03:55:00,